PHFVA EFKU-EFTP

Flight info

Callsign PHFVA
Flight time 1h 45m
Altitude 8000
Route DCT
Aircraft PA24/L-SDGRY/S

Departure

Time 2026-04-22 12:00
Airport Kuopio Airport (EFKU)

Arrival

Time 2026-04-22 13:45
Airport Tampere-Pirkkala Airport (EFTP)
Time Latitude Longitude Altitude Speed Heading
2026-04-22 11:42 63.01118 27.78745 316 ft 0 kts 28°
2026-04-22 11:47 63.01119 27.78745 316 ft 0 kts 28°
2026-04-22 11:47 63.01138 27.78768 316 ft 2 kts 33°
2026-04-22 11:47 63.01152 27.78794 316 ft 3 kts 42°
2026-04-22 11:48 63.01155 27.78800 317 ft 0 kts 47°
2026-04-22 11:48 63.01162 27.78817 317 ft 3 kts 52°
2026-04-22 11:48 63.01165 27.78897 319 ft 7 kts 119°
2026-04-22 11:49 63.01119 27.78986 322 ft 0 kts 163°
2026-04-22 11:49 63.01116 27.78987 322 ft 3 kts 162°
2026-04-22 11:49 63.01060 27.79023 324 ft 12 kts 171°
2026-04-22 11:50 63.00951 27.79108 323 ft 21 kts 157°
2026-04-22 11:50 63.00801 27.79249 322 ft 24 kts 153°
2026-04-22 11:50 63.00639 27.79395 316 ft 26 kts 155°
2026-04-22 11:50 63.00464 27.79544 309 ft 28 kts 159°
2026-04-22 11:51 63.00294 27.79704 305 ft 24 kts 156°
2026-04-22 11:51 63.00222 27.79775 307 ft 0 kts 168°
2026-04-22 11:51 63.00216 27.79778 307 ft 2 kts 163°
2026-04-22 11:51 63.00191 27.79802 309 ft 5 kts 155°
2026-04-22 11:52 63.00156 27.79834 310 ft 5 kts 157°
2026-04-22 11:52 63.00120 27.79871 312 ft 6 kts 154°
2026-04-22 11:52 63.00073 27.79920 314 ft 9 kts 154°
2026-04-22 11:52 63.00013 27.79979 315 ft 10 kts 157°
2026-04-22 11:53 62.99943 27.80047 316 ft 12 kts 157°
2026-04-22 11:53 62.99853 27.80126 317 ft 16 kts 159°
2026-04-22 11:53 62.99749 27.80224 320 ft 16 kts 156°
2026-04-22 11:53 62.99644 27.80326 324 ft 16 kts 159°
2026-04-22 11:54 62.99543 27.80411 327 ft 15 kts 157°
2026-04-22 11:54 62.99463 27.80527 327 ft 14 kts 128°
2026-04-22 11:54 62.99453 27.80720 323 ft 9 kts 55°
2026-04-22 11:54 62.99461 27.80747 322 ft 0 kts 55°
2026-04-22 11:58 62.99466 27.80761 321 ft 11 kts 53°
2026-04-22 11:58 62.99550 27.80841 321 ft 14 kts 351°
2026-04-22 11:59 62.99738 27.80644 319 ft 58 kts 339°
2026-04-22 11:59 63.00200 27.80352 441 ft 71 kts 335°
2026-04-22 11:59 63.00683 27.79902 549 ft 84 kts 332°
2026-04-22 11:59 63.01201 27.79408 879 ft 74 kts 335°
2026-04-22 12:00 63.01690 27.78848 992 ft 82 kts 314°
2026-04-22 12:00 63.01824 27.77638 1166 ft 92 kts 272°
2026-04-22 12:00 63.01654 27.76231 1342 ft 97 kts 265°
2026-04-22 12:00 63.01435 27.74805 1450 ft 101 kts 266°
2026-04-22 12:01 63.01227 27.73341 1571 ft 97 kts 267°
2026-04-22 12:01 63.01026 27.71882 1609 ft 102 kts 267°
2026-04-22 12:01 63.00861 27.70372 1724 ft 99 kts 270°
2026-04-22 12:01 63.00725 27.68886 1794 ft 98 kts 270°
2026-04-22 12:02 63.00582 27.67396 1753 ft 103 kts 273°
2026-04-22 12:02 63.00474 27.65899 1842 ft 95 kts 273°
2026-04-22 12:02 63.00333 27.64423 1839 ft 102 kts 271°
2026-04-22 12:02 63.00192 27.62919 1950 ft 97 kts 275°
2026-04-22 12:03 63.00085 27.61464 2028 ft 99 kts 272°
2026-04-22 12:03 62.99873 27.59996 2125 ft 102 kts 263°
2026-04-22 12:03 62.99600 27.58531 2214 ft 104 kts 263°
2026-04-22 12:03 62.99329 27.57050 2309 ft 103 kts 262°
2026-04-22 12:04 62.99007 27.55618 2367 ft 107 kts 254°
2026-04-22 12:04 62.98618 27.54204 2457 ft 109 kts 254°
2026-04-22 12:04 62.98226 27.52746 2477 ft 114 kts 254°
2026-04-22 12:04 62.97796 27.51236 2494 ft 119 kts 252°
2026-04-22 12:05 62.97334 27.49723 2566 ft 119 kts 250°
2026-04-22 12:05 62.96848 27.48155 2532 ft 127 kts 250°
2026-04-22 12:05 62.96369 27.46487 2501 ft 131 kts 252°
2026-04-22 12:05 62.95891 27.44764 2481 ft 132 kts 252°
2026-04-22 12:06 62.95417 27.43041 2436 ft 134 kts 252°
2026-04-22 12:06 62.94932 27.41306 2433 ft 133 kts 250°
2026-04-22 12:06 62.94409 27.39606 2389 ft 135 kts 250°
2026-04-22 12:06 62.93913 27.37882 2402 ft 131 kts 254°
2026-04-22 12:07 62.93530 27.36106 2425 ft 127 kts 263°
2026-04-22 12:07 62.93218 27.34323 2417 ft 125 kts 260°
2026-04-22 12:07 62.92865 27.32569 2409 ft 126 kts 259°
2026-04-22 12:07 62.92492 27.30844 2396 ft 127 kts 257°
2026-04-22 12:08 62.92104 27.29115 2448 ft 125 kts 258°
2026-04-22 12:08 62.91739 27.27351 2420 ft 129 kts 260°
2026-04-22 12:08 62.91398 27.25554 2445 ft 125 kts 260°
2026-04-22 12:08 62.91064 27.23799 2452 ft 125 kts 262°
2026-04-22 12:09 62.90757 27.22026 2462 ft 123 kts 262°
2026-04-22 12:09 62.90436 27.20291 2478 ft 124 kts 261°
2026-04-22 12:09 62.90102 27.18539 2491 ft 124 kts 261°
2026-04-22 12:09 62.89770 27.16805 2518 ft 123 kts 261°
2026-04-22 12:10 62.89435 27.15068 2536 ft 124 kts 259°
2026-04-22 12:10 62.89061 27.13368 2553 ft 124 kts 257°
2026-04-22 12:10 62.88637 27.11700 2560 ft 126 kts 252°
2026-04-22 12:10 62.88134 27.10086 2536 ft 132 kts 246°
2026-04-22 12:11 62.87558 27.08499 2572 ft 133 kts 248°
2026-04-22 12:11 62.87049 27.06834 2601 ft 130 kts 254°
2026-04-22 12:11 62.86638 27.05114 2627 ft 128 kts 260°
2026-04-22 12:11 62.86293 27.03339 2651 ft 126 kts 263°
2026-04-22 12:12 62.85966 27.01580 2653 ft 124 kts 262°
2026-04-22 12:12 62.85626 26.99838 2640 ft 125 kts 261°
2026-04-22 12:12 62.85270 26.98087 2631 ft 126 kts 260°
2026-04-22 12:12 62.84897 26.96343 2614 ft 126 kts 258°
2026-04-22 12:13 62.84487 26.94646 2597 ft 126 kts 255°
2026-04-22 12:13 62.84005 26.93010 2570 ft 129 kts 249°
2026-04-22 12:13 62.83448 26.91439 2554 ft 132 kts 245°
2026-04-22 12:13 62.82840 26.89945 2546 ft 134 kts 241°
2026-04-22 12:14 62.82175 26.88493 2546 ft 136 kts 237°
2026-04-22 12:14 62.81453 26.87126 2551 ft 138 kts 233°
2026-04-22 12:14 62.80701 26.85799 2558 ft 140 kts 231°
2026-04-22 12:14 62.79904 26.84530 2553 ft 143 kts 226°
2026-04-22 12:15 62.79047 26.83377 2559 ft 146 kts 222°
2026-04-22 12:15 62.78162 26.82276 2552 ft 147 kts 219°
2026-04-22 12:15 62.77243 26.81258 2549 ft 149 kts 217°
2026-04-22 12:15 62.76310 26.80266 2547 ft 149 kts 216°
2026-04-22 12:16 62.75353 26.79350 2547 ft 150 kts 215°
2026-04-22 12:16 62.74412 26.78387 2566 ft 149 kts 217°
2026-04-22 12:16 62.73802 26.77725 2558 ft 146 kts 219°
2026-04-22 12:16 62.72615 26.76391 2579 ft 145 kts 221°
2026-04-22 12:17 62.71748 26.75288 2604 ft 143 kts 225°
2026-04-22 12:17 62.71187 26.74487 2624 ft 141 kts 227°
2026-04-22 12:17 62.70413 26.73258 2641 ft 138 kts 230°
2026-04-22 12:17 62.69650 26.71976 2647 ft 138 kts 231°
2026-04-22 12:18 62.68901 26.70681 2645 ft 138 kts 231°
2026-04-22 12:18 62.68118 26.69456 2641 ft 140 kts 227°
2026-04-22 12:18 62.67305 26.68281 2639 ft 140 kts 226°
2026-04-22 12:18 62.66506 26.67068 2649 ft 139 kts 229°
2026-04-22 12:19 62.65747 26.65831 2669 ft 137 kts 229°
2026-04-22 12:19 62.64972 26.64601 2675 ft 138 kts 228°
2026-04-22 12:19 62.64173 26.63430 2678 ft 139 kts 224°
2026-04-22 12:19 62.63363 26.62266 2694 ft 139 kts 226°
2026-04-22 12:20 62.62578 26.61048 2701 ft 139 kts 229°
2026-04-22 12:20 62.61812 26.59754 2698 ft 138 kts 231°
2026-04-22 12:20 62.61076 26.58454 2720 ft 138 kts 233°
2026-04-22 12:20 62.60338 26.57108 2704 ft 139 kts 233°
2026-04-22 12:21 62.59601 26.55754 2715 ft 138 kts 233°
2026-04-22 12:21 62.58858 26.54430 2706 ft 139 kts 232°
2026-04-22 12:21 62.58098 26.53127 2718 ft 139 kts 231°
2026-04-22 12:21 62.57343 26.51836 2724 ft 137 kts 232°
2026-04-22 12:22 62.56618 26.50512 2716 ft 136 kts 233°
2026-04-22 12:22 62.55909 26.49156 2737 ft 136 kts 236°
2026-04-22 12:22 62.55206 26.47780 2736 ft 137 kts 235°
2026-04-22 12:22 62.54528 26.46337 2753 ft 136 kts 239°
2026-04-22 12:23 62.53896 26.44836 2754 ft 134 kts 243°
2026-04-22 12:23 62.53301 26.43283 2800 ft 133 kts 247°
2026-04-22 12:23 62.52749 26.41690 2792 ft 132 kts 244°
2026-04-22 12:23 62.52150 26.40177 2789 ft 132 kts 242°
2026-04-22 12:24 62.51562 26.38657 2797 ft 131 kts 244°
2026-04-22 12:24 62.51028 26.37097 2738 ft 131 kts 250°
2026-04-22 12:24 62.50553 26.35429 2698 ft 129 kts 250°
2026-04-22 12:24 62.50024 26.33849 2643 ft 132 kts 246°
2026-04-22 12:25 62.49442 26.32287 2549 ft 134 kts 245°
2026-04-22 12:25 62.48889 26.30706 2494 ft 130 kts 247°
2026-04-22 12:25 62.48383 26.29087 2420 ft 130 kts 248°
2026-04-22 12:25 62.47869 26.27501 2351 ft 129 kts 245°
2026-04-22 12:26 62.47321 26.25941 2306 ft 131 kts 245°
2026-04-22 12:26 62.46789 26.24351 2356 ft 128 kts 246°
2026-04-22 12:26 62.46298 26.22743 2333 ft 129 kts 252°
2026-04-22 12:26 62.45867 26.21054 2340 ft 126 kts 252°
2026-04-22 12:27 62.45443 26.19425 2325 ft 125 kts 251°
2026-04-22 12:27 62.45003 26.17763 2261 ft 128 kts 253°
2026-04-22 12:27 62.44616 26.16081 2257 ft 123 kts 256°
2026-04-22 12:27 62.44263 26.14408 2279 ft 118 kts 257°
2026-04-22 12:28 62.43936 26.12827 2330 ft 115 kts 259°
2026-04-22 12:28 62.43629 26.11225 2333 ft 115 kts 261°
2026-04-22 12:28 62.43322 26.09633 2356 ft 115 kts 259°
2026-04-22 12:28 62.42980 26.08074 2357 ft 117 kts 257°
2026-04-22 12:29 62.42629 26.06500 2388 ft 115 kts 257°
2026-04-22 12:29 62.42274 26.04947 2377 ft 116 kts 257°
2026-04-22 12:29 62.41909 26.03402 2377 ft 116 kts 255°
2026-04-22 12:29 62.41521 26.01878 2398 ft 116 kts 252°
2026-04-22 12:30 62.40578 25.99030 2434 ft 118 kts 244°
2026-04-22 12:30 62.40050 25.97630 2446 ft 122 kts 243°
2026-04-22 12:30 62.39488 25.96285 2499 ft 121 kts 237°
2026-04-22 12:31 62.38847 25.95048 2514 ft 125 kts 233°
2026-04-22 12:31 62.38148 25.93935 2545 ft 128 kts 226°
2026-04-22 12:31 62.37371 25.92965 2543 ft 130 kts 217°
2026-04-22 12:31 62.36512 25.92236 2553 ft 133 kts 212°
2026-04-22 12:32 62.35629 25.91571 2569 ft 135 kts 210°
2026-04-22 12:32 62.33816 25.90366 2629 ft 135 kts 210°
2026-04-22 12:32 62.32967 25.89594 2659 ft 132 kts 218°
2026-04-22 12:33 62.32155 25.88688 2697 ft 132 kts 221°
2026-04-22 12:33 62.31364 25.87683 2729 ft 132 kts 224°
2026-04-22 12:33 62.30621 25.86561 2769 ft 128 kts 231°
2026-04-22 12:33 62.29941 25.85349 2800 ft 127 kts 233°
2026-04-22 12:34 62.29222 25.84148 2721 ft 135 kts 227°
2026-04-22 12:34 62.28421 25.83144 2760 ft 135 kts 219°
2026-04-22 12:34 62.27547 25.82311 2711 ft 139 kts 214°
2026-04-22 12:34 62.26662 25.81511 2723 ft 138 kts 214°
2026-04-22 12:35 62.25772 25.80718 2718 ft 140 kts 213°
2026-04-22 12:35 62.24850 25.80009 2700 ft 141 kts 206°
2026-04-22 12:35 62.23896 25.79561 2678 ft 142 kts 201°
2026-04-22 12:35 62.22931 25.79138 2690 ft 141 kts 200°
2026-04-22 12:36 62.21955 25.78782 2698 ft 143 kts 198°
2026-04-22 12:36 62.20973 25.78428 2722 ft 142 kts 201°
2026-04-22 12:36 62.20022 25.78003 2743 ft 141 kts 203°
2026-04-22 12:36 62.19076 25.77469 2758 ft 140 kts 207°
2026-04-22 12:37 62.18137 25.76892 2765 ft 141 kts 205°
2026-04-22 12:37 62.17180 25.76357 2769 ft 143 kts 204°
2026-04-22 12:37 62.16213 25.75846 2765 ft 143 kts 205°
2026-04-22 12:37 62.15270 25.75209 2764 ft 141 kts 210°
2026-04-22 12:38 62.14385 25.74403 2756 ft 138 kts 218°
2026-04-22 12:38 62.13549 25.73418 2689 ft 137 kts 222°
2026-04-22 12:38 62.12745 25.72385 2658 ft 132 kts 225°
2026-04-22 12:38 62.11982 25.71315 2604 ft 131 kts 227°
2026-04-22 12:39 62.11243 25.70210 2576 ft 130 kts 228°
2026-04-22 12:39 62.09742 25.68051 2468 ft 131 kts 225°
2026-04-22 12:39 62.08946 25.67084 2406 ft 133 kts 219°
2026-04-22 12:40 62.08073 25.66316 2295 ft 138 kts 208°
2026-04-22 12:40 62.07139 25.65708 2249 ft 141 kts 206°
2026-04-22 12:40 62.06188 25.65246 2323 ft 140 kts 200°
2026-04-22 12:40 62.05235 25.64839 2332 ft 142 kts 202°
2026-04-22 12:41 62.04281 25.64356 2403 ft 139 kts 204°
2026-04-22 12:41 62.03342 25.63813 2450 ft 141 kts 206°
2026-04-22 12:41 62.02396 25.63295 2539 ft 140 kts 204°
2026-04-22 12:41 62.01450 25.62794 2564 ft 140 kts 205°
2026-04-22 12:42 62.00513 25.62205 2593 ft 139 kts 208°
2026-04-22 12:42 61.99597 25.61574 2621 ft 138 kts 208°
2026-04-22 12:42 61.98674 25.60966 2656 ft 139 kts 207°
2026-04-22 12:42 61.97746 25.60407 2699 ft 138 kts 206°
2026-04-22 12:43 61.96832 25.59869 2696 ft 138 kts 205°
2026-04-22 12:43 61.95915 25.59316 2735 ft 136 kts 207°
2026-04-22 12:43 61.95019 25.58664 2766 ft 136 kts 211°
2026-04-22 12:43 61.94136 25.57936 2799 ft 136 kts 212°
2026-04-22 12:44 61.93256 25.57193 2820 ft 136 kts 212°
2026-04-22 12:44 61.92380 25.56458 2841 ft 135 kts 212°
2026-04-22 12:44 61.91512 25.55704 2859 ft 135 kts 213°
2026-04-22 12:44 61.90646 25.54945 2874 ft 134 kts 212°
2026-04-22 12:45 61.89790 25.54218 2893 ft 134 kts 212°
2026-04-22 12:45 61.88916 25.53494 2893 ft 135 kts 211°
2026-04-22 12:45 61.88046 25.52748 2928 ft 134 kts 214°
2026-04-22 12:45 61.87197 25.51924 2923 ft 135 kts 216°
2026-04-22 12:46 61.86337 25.51083 2910 ft 135 kts 214°
2026-04-22 12:46 61.85468 25.50316 2916 ft 136 kts 212°
2026-04-22 12:46 61.84573 25.49629 2885 ft 138 kts 208°
2026-04-22 12:46 61.83655 25.49029 2884 ft 138 kts 206°
2026-04-22 12:47 61.82717 25.48510 2862 ft 140 kts 203°
2026-04-22 12:47 61.81762 25.48086 2859 ft 141 kts 199°
2026-04-22 12:47 61.80791 25.47765 2849 ft 142 kts 197°
2026-04-22 12:47 61.79817 25.47448 2857 ft 141 kts 197°
2026-04-22 12:48 61.78839 25.47164 2864 ft 142 kts 196°
2026-04-22 12:48 61.77869 25.46876 2880 ft 142 kts 198°
2026-04-22 12:48 61.76899 25.46518 2893 ft 141 kts 200°
2026-04-22 12:48 61.75943 25.46107 2909 ft 140 kts 202°
2026-04-22 12:49 61.74996 25.45652 2937 ft 139 kts 202°
2026-04-22 12:49 61.74039 25.45261 2952 ft 141 kts 198°
2026-04-22 12:49 61.73061 25.44994 2957 ft 143 kts 194°
2026-04-22 12:49 61.72069 25.44824 2968 ft 144 kts 192°
2026-04-22 12:50 61.71061 25.44695 2970 ft 145 kts 191°
2026-04-22 12:50 61.70065 25.44533 2959 ft 145 kts 193°
2026-04-22 12:50 61.69063 25.44343 2948 ft 144 kts 194°
2026-04-22 12:50 61.68070 25.44075 2946 ft 143 kts 197°
2026-04-22 12:51 61.67092 25.43750 2925 ft 141 kts 199°
2026-04-22 12:51 61.66131 25.43381 2938 ft 140 kts 200°
2026-04-22 12:51 61.65177 25.42987 2924 ft 140 kts 201°
2026-04-22 12:51 61.64230 25.42590 2918 ft 140 kts 201°
2026-04-22 12:52 61.63271 25.42179 2900 ft 139 kts 202°
2026-04-22 12:52 61.62335 25.41703 2887 ft 137 kts 205°
2026-04-22 12:52 61.61424 25.41163 2875 ft 136 kts 208°
2026-04-22 12:52 61.60540 25.40464 2881 ft 135 kts 214°
2026-04-22 12:53 61.59671 25.39734 2889 ft 135 kts 212°
2026-04-22 12:53 61.58795 25.39021 2914 ft 135 kts 214°
2026-04-22 12:53 61.57957 25.38203 2937 ft 134 kts 218°
2026-04-22 12:53 61.57152 25.37245 2954 ft 132 kts 223°
2026-04-22 12:54 61.56393 25.36185 2976 ft 130 kts 227°
2026-04-22 12:54 61.55674 25.35052 2982 ft 128 kts 230°
2026-04-22 12:54 61.54987 25.33877 2977 ft 127 kts 232°
2026-04-22 12:54 61.54271 25.32768 2957 ft 130 kts 226°
2026-04-22 12:55 61.53478 25.31798 2929 ft 134 kts 220°
2026-04-22 12:55 61.52623 25.30977 2893 ft 136 kts 213°
2026-04-22 12:55 61.51724 25.30293 2882 ft 138 kts 210°
2026-04-22 12:55 61.50823 25.29590 2885 ft 137 kts 212°
2026-04-22 12:56 61.49950 25.28815 2885 ft 135 kts 215°
2026-04-22 12:56 61.49115 25.27990 2883 ft 134 kts 217°
2026-04-22 12:56 61.48284 25.27125 2888 ft 133 kts 219°
2026-04-22 12:56 61.47442 25.26308 2848 ft 135 kts 212°
2026-04-22 12:57 61.46525 25.25772 2804 ft 139 kts 202°
2026-04-22 12:57 61.45555 25.25498 2773 ft 142 kts 194°
2026-04-22 12:57 61.44556 25.25466 2747 ft 145 kts 186°
2026-04-22 12:57 61.43542 25.25649 2748 ft 147 kts 180°
2026-04-22 12:58 61.42521 25.25979 2729 ft 149 kts 177°
2026-04-22 12:58 61.41506 25.26423 2724 ft 149 kts 172°
2026-04-22 12:58 61.40495 25.26892 2708 ft 148 kts 179°
2026-04-22 12:58 61.39480 25.26819 2716 ft 144 kts 198°
2026-04-22 12:59 61.38559 25.26216 2749 ft 137 kts 214°
2026-04-22 12:59 61.37746 25.25240 2764 ft 132 kts 226°
2026-04-22 12:59 61.37047 25.24052 2784 ft 127 kts 236°
2026-04-22 12:59 61.36464 25.22693 2790 ft 124 kts 244°
2026-04-22 13:00 61.35988 25.21259 2800 ft 119 kts 254°
2026-04-22 13:00 61.35620 25.19734 2813 ft 116 kts 257°
2026-04-22 13:00 61.35338 25.18173 2844 ft 114 kts 268°
2026-04-22 13:00 61.35173 25.16587 2859 ft 110 kts 272°
2026-04-22 13:01 61.35075 25.15042 2862 ft 107 kts 276°
2026-04-22 13:01 61.35044 25.13491 2863 ft 107 kts 279°
2026-04-22 13:01 61.34995 25.11943 2856 ft 108 kts 272°
2026-04-22 13:01 61.34807 25.10405 2817 ft 112 kts 261°
2026-04-22 13:02 61.34464 25.08928 2817 ft 116 kts 252°
2026-04-22 13:02 61.34085 25.07435 2825 ft 116 kts 256°
2026-04-22 13:02 61.33704 25.05948 2829 ft 117 kts 254°
2026-04-22 13:02 61.33282 25.04474 2834 ft 119 kts 250°
2026-04-22 13:03 61.32746 25.03134 2782 ft 125 kts 238°
2026-04-22 13:03 61.32109 25.01874 2779 ft 127 kts 235°
2026-04-22 13:03 61.31458 25.00628 2779 ft 127 kts 236°
2026-04-22 13:03 61.30794 24.99420 2811 ft 126 kts 233°
2026-04-22 13:04 61.30130 24.98196 2817 ft 128 kts 237°
2026-04-22 13:04 61.29648 24.96682 2837 ft 123 kts 263°
2026-04-22 13:04 61.29552 24.95026 2909 ft 109 kts 285°
2026-04-22 13:04 61.29646 24.93514 2914 ft 105 kts 288°
2026-04-22 13:05 61.29765 24.92035 2901 ft 105 kts 289°
2026-04-22 13:05 61.29864 24.90542 2892 ft 105 kts 286°
2026-04-22 13:05 61.29946 24.89008 2871 ft 105 kts 287°
2026-04-22 13:05 61.30067 24.87543 2885 ft 103 kts 289°
2026-04-22 13:06 61.30241 24.86102 2891 ft 102 kts 295°
2026-04-22 13:06 61.30473 24.84720 2908 ft 100 kts 295°
2026-04-22 13:06 61.30692 24.83336 2898 ft 102 kts 291°
2026-04-22 13:06 61.30804 24.81848 2896 ft 105 kts 285°
2026-04-22 13:07 61.30870 24.80343 2921 ft 105 kts 283°
2026-04-22 13:07 61.30918 24.78819 2917 ft 106 kts 283°
2026-04-22 13:07 61.30955 24.77297 2938 ft 105 kts 282°
2026-04-22 13:07 61.30993 24.75774 2927 ft 106 kts 282°
2026-04-22 13:08 61.31029 24.74244 2931 ft 106 kts 281°
2026-04-22 13:08 61.31035 24.72706 2918 ft 106 kts 279°
2026-04-22 13:08 61.31003 24.71168 2905 ft 106 kts 277°
2026-04-22 13:08 61.30951 24.69655 2892 ft 106 kts 277°
2026-04-22 13:09 61.30895 24.68115 2889 ft 107 kts 277°
2026-04-22 13:09 61.30840 24.66566 2895 ft 107 kts 276°
2026-04-22 13:09 61.30764 24.65025 2898 ft 107 kts 274°
2026-04-22 13:09 61.30668 24.63491 2892 ft 107 kts 271°
2026-04-22 13:10 61.30472 24.61970 2871 ft 112 kts 261°
2026-04-22 13:10 61.30135 24.60464 2877 ft 116 kts 259°
2026-04-22 13:10 61.29961 24.59424 2885 ft 114 kts 267°
2026-04-22 13:10 61.29804 24.57842 2893 ft 109 kts 273°
2026-04-22 13:11 61.29729 24.56299 2889 ft 106 kts 278°
2026-04-22 13:11 61.29729 24.54786 2882 ft 103 kts 284°
2026-04-22 13:11 61.29809 24.53309 2873 ft 103 kts 286°
2026-04-22 13:11 61.29918 24.51839 2866 ft 102 kts 289°
2026-04-22 13:12 61.30095 24.50425 2872 ft 100 kts 295°
2026-04-22 13:12 61.30378 24.49111 2861 ft 99 kts 303°
2026-04-22 13:12 61.30750 24.47907 2873 ft 98 kts 308°
2026-04-22 13:12 61.31177 24.46804 2857 ft 98 kts 313°
2026-04-22 13:13 61.31647 24.45783 2852 ft 98 kts 317°
2026-04-22 13:13 61.32148 24.44853 2850 ft 98 kts 317°
2026-04-22 13:13 61.32579 24.43751 2833 ft 99 kts 303°
2026-04-22 13:13 61.32830 24.42395 2828 ft 103 kts 289°
2026-04-22 13:14 61.32869 24.40875 2809 ft 108 kts 276°
2026-04-22 13:14 61.32835 24.39320 2831 ft 107 kts 278°
2026-04-22 13:14 61.32813 24.37766 2810 ft 108 kts 278°
2026-04-22 13:14 61.32785 24.36204 2814 ft 107 kts 279°
2026-04-22 13:15 61.32779 24.34672 2783 ft 105 kts 280°
2026-04-22 13:15 61.32790 24.33101 2615 ft 110 kts 280°
2026-04-22 13:15 61.32813 24.31556 2569 ft 104 kts 282°
2026-04-22 13:15 61.32850 24.30028 2455 ft 106 kts 281°
2026-04-22 13:16 61.32882 24.28541 2404 ft 103 kts 282°
2026-04-22 13:16 61.32922 24.27022 2305 ft 106 kts 284°
2026-04-22 13:16 61.33017 24.25514 2254 ft 103 kts 288°
2026-04-22 13:16 61.33188 24.24053 2150 ft 104 kts 293°
2026-04-22 13:17 61.33369 24.22609 2066 ft 102 kts 290°
2026-04-22 13:17 61.33509 24.21145 1957 ft 104 kts 289°
2026-04-22 13:17 61.33617 24.19693 1901 ft 100 kts 288°
2026-04-22 13:17 61.33688 24.18287 1826 ft 97 kts 287°
2026-04-22 13:18 61.33772 24.16913 1745 ft 94 kts 288°
2026-04-22 13:18 61.33851 24.15555 1672 ft 92 kts 288°
2026-04-22 13:18 61.33913 24.14266 1658 ft 90 kts 288°
2026-04-22 13:18 61.34033 24.12986 1613 ft 89 kts 295°
2026-04-22 13:19 61.34239 24.11819 1625 ft 83 kts 303°
2026-04-22 13:19 61.34532 24.10775 1607 ft 83 kts 309°
2026-04-22 13:19 61.34872 24.09817 1614 ft 81 kts 311°
2026-04-22 13:19 61.35229 24.08898 1596 ft 82 kts 313°
2026-04-22 13:20 61.35594 24.07985 1619 ft 81 kts 312°
2026-04-22 13:20 61.35922 24.07012 1619 ft 83 kts 305°
2026-04-22 13:20 61.36250 24.06035 1629 ft 83 kts 320°
2026-04-22 13:20 61.36722 24.05366 1656 ft 81 kts 332°
2026-04-22 13:21 61.37238 24.04891 1657 ft 82 kts 334°
2026-04-22 13:21 61.37763 24.04474 1661 ft 81 kts 336°
2026-04-22 13:21 61.38295 24.04080 1664 ft 82 kts 336°
2026-04-22 13:21 61.38840 24.03702 1670 ft 82 kts 338°
2026-04-22 13:22 61.39385 24.03341 1666 ft 83 kts 336°
2026-04-22 13:22 61.39928 24.02964 1654 ft 82 kts 337°
2026-04-22 13:22 61.40471 24.02589 1648 ft 82 kts 336°
2026-04-22 13:22 61.40960 24.02215 1643 ft 71 kts 332°
2026-04-22 13:23 61.41440 24.01775 1565 ft 72 kts 332°
2026-04-22 13:23 61.41871 24.01294 1481 ft 75 kts 327°
2026-04-22 13:23 61.42303 24.00737 1471 ft 69 kts 327°
2026-04-22 13:23 61.42728 24.00241 1405 ft 69 kts 327°
2026-04-22 13:24 61.43136 23.99731 1378 ft 66 kts 329°
2026-04-22 13:24 61.43545 23.99284 1337 ft 69 kts 331°
2026-04-22 13:24 61.43978 23.98926 1333 ft 65 kts 337°
2026-04-22 13:24 61.44408 23.98679 1304 ft 61 kts 338°
2026-04-22 13:25 61.44828 23.98380 1197 ft 65 kts 320°
2026-04-22 13:25 61.45013 23.97598 1127 ft 68 kts 275°
2026-04-22 13:25 61.44897 23.96573 1068 ft 75 kts 263°
2026-04-22 13:25 61.44741 23.95465 1029 ft 80 kts 257°
2026-04-22 13:26 61.44469 23.94472 1007 ft 81 kts 245°
2026-04-22 13:26 61.44165 23.93514 1041 ft 77 kts 257°
2026-04-22 13:26 61.44015 23.92450 1048 ft 75 kts 270°
2026-04-22 13:26 61.43911 23.91414 1056 ft 73 kts 270°
2026-04-22 13:27 61.43756 23.90403 1057 ft 74 kts 265°
2026-04-22 13:27 61.43587 23.89387 1065 ft 75 kts 270°
2026-04-22 13:27 61.43459 23.88358 1110 ft 72 kts 270°
2026-04-22 13:27 61.43368 23.87303 1158 ft 74 kts 284°
2026-04-22 13:28 61.43507 23.86326 1216 ft 65 kts 298°
2026-04-22 13:28 61.43653 23.85467 1229 ft 64 kts 296°
2026-04-22 13:28 61.43822 23.84602 1276 ft 64 kts 303°
2026-04-22 13:28 61.44020 23.83761 1283 ft 65 kts 298°
2026-04-22 13:29 61.44176 23.82854 1307 ft 67 kts 294°
2026-04-22 13:29 61.44247 23.81892 1327 ft 67 kts 286°
2026-04-22 13:29 61.44232 23.80909 1346 ft 71 kts 273°
2026-04-22 13:29 61.44144 23.79896 1387 ft 70 kts 272°
2026-04-22 13:30 61.44076 23.78871 1406 ft 71 kts 276°
2026-04-22 13:30 61.44055 23.77854 1437 ft 70 kts 281°
2026-04-22 13:30 61.44047 23.76840 1464 ft 70 kts 283°
2026-04-22 13:30 61.44044 23.75854 1493 ft 65 kts 285°
2026-04-22 13:31 61.44050 23.74923 1491 ft 65 kts 286°
2026-04-22 13:31 61.44033 23.73963 1457 ft 67 kts 281°
2026-04-22 13:31 61.43980 23.72977 1358 ft 69 kts 278°
2026-04-22 13:31 61.43895 23.71978 1233 ft 70 kts 276°
2026-04-22 13:32 61.43763 23.71009 1123 ft 72 kts 263°
2026-04-22 13:32 61.43555 23.70066 1060 ft 71 kts 263°
2026-04-22 13:32 61.43336 23.69089 999 ft 75 kts 261°
2026-04-22 13:32 61.43119 23.68089 957 ft 74 kts 263°
2026-04-22 13:33 61.42913 23.67100 892 ft 76 kts 256°
2026-04-22 13:33 61.42688 23.66118 851 ft 76 kts 259°
2026-04-22 13:33 61.42455 23.65114 806 ft 76 kts 258°
2026-04-22 13:33 61.42236 23.64111 724 ft 75 kts 262°
2026-04-22 13:34 61.42025 23.63091 685 ft 79 kts 252°
2026-04-22 13:34 61.41766 23.62120 888 ft 85 kts 253°
2026-04-22 13:34 61.41558 23.60748 956 ft 123 kts 253°
2026-04-22 13:34 61.41277 23.59406 1257 ft 105 kts 206°
2026-04-22 13:35 61.40467 23.59598 1207 ft 125 kts 168°
2026-04-22 13:35 61.39669 23.60028 1374 ft 113 kts 169°
2026-04-22 13:35 61.38928 23.60433 1468 ft 109 kts 173°
2026-04-22 13:35 61.38221 23.60993 1440 ft 113 kts 144°
2026-04-22 13:36 61.37757 23.62242 1496 ft 107 kts 107°
2026-04-22 13:36 61.37570 23.63656 1512 ft 97 kts 82°
2026-04-22 13:36 61.37592 23.65033 1508 ft 89 kts 66°
2026-04-22 13:36 61.37677 23.66304 1483 ft 89 kts 60°
2026-04-22 13:37 61.37834 23.67498 1514 ft 83 kts 53°
2026-04-22 13:37 61.38046 23.68615 1514 ft 81 kts 53°
2026-04-22 13:37 61.38222 23.69751 1515 ft 84 kts 56°
2026-04-22 13:37 61.38408 23.70892 1532 ft 82 kts 54°
2026-04-22 13:38 61.38595 23.72031 1539 ft 83 kts 52°
2026-04-22 13:38 61.38927 23.74366 1544 ft 84 kts 53°
2026-04-22 13:38 61.39110 23.75506 1539 ft 82 kts 48°
2026-04-22 13:39 61.39411 23.76458 1582 ft 75 kts 19°
2026-04-22 13:39 61.39837 23.76874 1619 ft 62 kts 358°
2026-04-22 13:39 61.40247 23.77046 1592 ft 60 kts 349°
2026-04-22 13:39 61.40640 23.77031 1593 ft 54 kts 340°
2026-04-22 13:40 61.41006 23.76854 1581 ft 53 kts 334°
2026-04-22 13:40 61.41350 23.76576 1575 ft 53 kts 326°
2026-04-22 13:40 61.41653 23.76163 1578 ft 51 kts 321°
2026-04-22 13:40 61.41941 23.75718 1566 ft 52 kts 324°
2026-04-22 13:41 61.42227 23.75250 1542 ft 53 kts 321°
2026-04-22 13:41 61.42511 23.74748 1494 ft 55 kts 320°
2026-04-22 13:41 61.42785 23.74189 1437 ft 56 kts 313°
2026-04-22 13:41 61.43028 23.73543 1374 ft 56 kts 316°
2026-04-22 13:42 61.43232 23.72799 1295 ft 63 kts 296°
2026-04-22 13:42 61.43304 23.71889 1251 ft 66 kts 285°
2026-04-22 13:42 61.43296 23.70935 1198 ft 66 kts 279°
2026-04-22 13:42 61.43243 23.69954 1123 ft 70 kts 273°
2026-04-22 13:43 61.43157 23.68931 1048 ft 75 kts 268°
2026-04-22 13:43 61.43020 23.67866 970 ft 77 kts 263°
2026-04-22 13:43 61.42842 23.66814 850 ft 78 kts 262°
2026-04-22 13:43 61.42625 23.65767 733 ft 80 kts 253°
2026-04-22 13:44 61.42389 23.64714 617 ft 79 kts 256°
2026-04-22 13:44 61.42155 23.63659 505 ft 80 kts 256°
2026-04-22 13:44 61.41903 23.62633 381 ft 78 kts 259°
2026-04-22 13:44 61.41709 23.61773 375 ft 51 kts 269°
2026-04-22 13:45 61.41719 23.61384 381 ft 6 kts 10°
2026-04-22 13:45 61.41758 23.61395 380 ft 5 kts 349°
2026-04-22 13:45 61.41784 23.61369 379 ft 0 kts 342°
2026-04-22 13:45 61.41802 23.61368 378 ft 9 kts 25°
2026-04-22 13:46 61.41863 23.61567 373 ft 21 kts 54°
2026-04-22 13:46 61.41922 23.61859 368 ft 21 kts 64°
2026-04-22 13:46 61.41989 23.61948 370 ft 8 kts 39°
2026-04-22 13:46 61.42015 23.62063 370 ft 10 kts 66°
2026-04-22 13:47 61.42043 23.62184 371 ft 7 kts 59°
2026-04-22 13:47 61.42057 23.62244 372 ft 0 kts 64°